Location: Proctor
(47.8934°N, 114.3048°W)
Time: 22:01:48
(UTC+00:00)

NANOSAT C BR1 - Visible Passes

Search period start: 28 June 2022 00:00
Search period end: 08 July 2022 00:00
Orbit: 583 x 601 km, 98.0° (Epoch: 28 June)

Date Brightness Start Highest point End Pass type
(mag) Time Alt. Az. Time Alt. Az. Time Alt. Az.
28 Jun ? 08:50:22 10° NE 08:53:28 20° E 08:56:18 11° SE visible
28 Jun ? 10:25:12 10° N 10:29:13 44° WNW 10:32:53 12° SW visible
29 Jun ? 08:58:50 10° NE 09:02:16 24° E 09:05:07 13° SE visible
29 Jun ? 10:34:02 10° N 10:37:55 37° WNW 10:41:42 10° SW visible
30 Jun ? 09:07:23 10° NE 09:11:04 29° E 09:13:56 14° SSE visible
30 Jun ? 10:42:53 10° N 10:46:35 31° WNW 10:50:17 10° SW visible
01 Jul ? 09:15:58 10° NNE 09:19:51 35° E 09:22:45 16° SSE visible
01 Jul ? 10:51:47 10° N 10:55:16 26° WNW 10:58:45 10° WSW visible
02 Jul ? 09:24:35 10° NNE 09:28:37 43° E 09:31:33 17° SSE visible
02 Jul ? 11:00:41 10° NNW 11:03:55 22° WNW 11:07:09 10° WSW visible
03 Jul ? 09:33:14 10° NNE 09:37:23 52° E 09:40:21 18° S visible
04 Jul ? 09:41:54 10° NNE 09:46:08 65° ESE 09:49:09 18° S visible
05 Jul ? 09:50:37 10° NNE 09:54:51 80° ESE 09:57:56 18° S visible
06 Jul ? 08:26:26 10° ENE 08:27:27 11° E 08:28:27 10° E visible
06 Jul ? 09:59:20 10° NNE 10:03:34 84° WNW 10:06:44 18° SSW visible
07 Jul ? 08:34:13 10° ENE 08:36:16 13° E 08:38:19 10° ESE visible
07 Jul ? 10:08:04 10° N 10:12:16 68° WNW 10:15:30 17° SSW visible
